[[{"header":{"parameterUnit":"m.s-1","parameterCategory":1,"la1":30.2991,"la2":30.254,"lo1":-89.0895,"lo2":-89.0444,"dy":0.0017,"dx":0.0017,"nx":28,"ny":28,"refTime":"2023-08-06T21:00:00:Z","depth":0,"parameterNumber":2,"parameterNumberName":"U-component_of_WINDS"},"data":[0,0,0,0,0,0,0,0,0,0,0,0,0,0,0,0,0,0,0,0,0,0,0,0,0,0,0,0,0,0,0,0,0,0,0,0,0,0,0,0,0,0,0,0,0,0,0,0,0,0,0,0,0,0,0,0,0,0,5.0693,5.0694,0,5.0836,5.0837,5.0839,5.0792,5.0789,5.0786,5.0783,5.0931,5.0937,5.0944,0,0,0,0,0,0,0,0,0,0,0,0,0,5.038,5.0386,5.0693,5.0694,5.0696,5.0835,5.0837,5.0839,5.0793,5.0789,5.0785,5.0782,5.0928,5.0936,5.0945,0,0,0,0,0,0,0,0,0,0,0,0,0,5.0519,5.0388,5.0692,5.069,5.0691,5.0835,5.0837,5.084,5.0794,5.0789,5.0784,5.078,5.0926,5.0936,5.0946,5.1101,0,0,5.0977,5.0981,0,0,0,0,0,0,0,0,5.0511,5.053,5.0688,5.069,5.0692,5.0791,5.0781,5.0928,5.0795,5.0755,5.0783,5.0778,5.0888,5.0901,5.0938,5.1108,5.1115,5.0978,5.0984,5.0988,5.0991,0,0,0,0,0,0,0,5.0501,5.0524,5.0749,5.0691,5.0693,5.0682,5.0696,5.0809,5.0846,5.0758,5.0755,5.0772,5.0888,5.0928,5.0941,5.1117,5.0978,5.0987,5.0993,5.0997,5.1421,5.1426,0,0,0,0,0,0,5.049,5.0516,5.0745,5.0753,5.0588,5.0691,5.0707,5.0764,5.0844,5.0852,5.0776,5.0769,5.0913,5.0929,5.0946,5.1133,5.0988,5.0998,5.1004,5.1416,5.1422,5.1428,0,0,0,0,0,0,5.0484,5.0511,5.0739,5.0634,5.0662,5.0701,5.0765,5.0769,5.0809,5.0858,5.0864,5.081,5.091,5.0932,5.1063,5.1137,5.1003,5.1012,5.141,5.1418,5.1425,5.1508,0,0,0,0,0,0,5.0475,5.0509,5.0569,5.0636,5.0668,5.0853,5.077,5.0775,5.0827,5.082,5.0892,5.0899,5.0908,5.1048,5.1073,5.1149,5.102,5.1403,5.1413,5.1422,5.1499,5.1517,5.1533,0,0,0,0,0,5.0464,5.0587,5.0572,5.06,5.0743,5.0857,5.0876,5.0883,5.0833,5.0893,5.0924,5.0897,5.1125,5.1062,5.109,5.117,5.1399,5.141,5.1422,5.1491,5.1514,5.1533,0,0,0,0,0,0,5.0528,5.0595,5.058,5.0728,5.0787,5.0849,5.0925,5.0908,5.0983,5.0973,5.0979,5.0996,5.113,5.1163,5.1091,5.1324,5.1255,5.1272,5.1297,5.132,5.1337,5.1326,5.1028,0,0,0,0,0,5.0559,5.0646,5.0701,5.0826,5.0857,5.0886,5.0936,5.0937,5.0999,5.1024,5.1064,5.1126,5.1211,5.1268,5.1349,5.1503,5.1518,5.1572,5.159,5.1604,5.1619,5.1702,5.1726,5.1466,5.1466,5.1465,0,0,5.0625,5.0672,5.0727,5.084,5.0886,5.0976,5.0907,5.1006,5.1073,5.1039,5.1164,5.1197,5.1266,5.1409,5.1474,5.144,5.1694,5.1619,5.1629,5.1637,5.1716,5.1741,5.1763,5.1473,5.1472,5.1471,0,0,5.0789,5.0835,5.0944,5.0991,5.1062,5.108,5.1106,5.1172,5.1191,5.1318,5.1294,5.1374,5.1521,5.1571,5.1616,5.1799,5.1777,5.1826,5.1917,5.1998,5.2018,5.2037,5.2101,5.2124,5.1841,5.1841,5.1841,0,5.0862,5.0996,5.1002,5.1102,5.1152,5.1125,5.1235,5.1282,5.1375,5.1411,5.1372,5.1555,5.16,5.1754,5.1799,5.1836,5.1866,5.1817,5.2015,5.2033,5.205,5.2112,5.2136,5.1846,5.1846,5.1845,5.1845,0,5.1082,5.1175,5.1255,5.1345,5.1404,5.1509,5.153,5.159,5.1586,5.1608,5.1737,5.179,5.1881,5.1918,5.1915,5.2071,5.2048,5.2013,5.1942,5.208,5.2138,5.2162,5.1854,5.1852,5.1851,5.1849,0,0,5.129,5.1382,5.1411,5.1451,5.1527,5.16,5.1703,5.1792,5.1842,5.1908,5.1995,5.212,5.2087,5.2138,5.214,5.2212,5.2352,5.2167,5.2168,5.2198,5.2527,5.2553,5.258,5.2338,5.2343,5.2347,5.2521,0,5.1461,5.1642,5.165,5.1815,5.1901,5.1877,5.1967,5.2023,5.2047,5.2124,5.2151,5.2239,5.2189,5.222,5.2289,5.2321,5.2418,5.2308,5.2419,5.2422,5.2401,5.2611,5.2638,5.28,5.2544,5.2548,5.2551,0,5.1684,5.1755,5.1929,5.1991,5.2028,5.2109,5.219,5.2264,5.2327,5.234,5.2397,5.2389,5.2494,5.2422,5.2567,5.2492,5.2538,5.256,5.2567,5.2576,5.2494,5.2625,5.2852,5.2876,5.2587,5.2584,5.2581,0,5.1817,5.1957,5.2079,5.2114,5.2191,5.2248,5.2283,5.2341,5.2394,5.2465,5.2499,5.2583,5.2628,5.2693,5.2708,5.2653,5.2853,5.2782,5.2866,5.2866,5.2908,5.2905,5.3145,5.294,5.294,5.2939,5.2939,0,5.2006,5.2113,5.214,5.2214,5.2333,5.2341,5.2459,5.249,5.2542,5.2622,5.2607,5.2683,5.2698,5.2777,5.2789,5.2907,5.2929,5.2941,5.2943,5.2942,5.294,5.2971,5.296,5.2946,5.2944,5.2943,5.2942,0,5.2175,5.2197,5.2328,5.2389,5.2407,5.2492,5.2545,5.2616,5.2639,5.274,5.2765,5.28,5.2892,5.2913,5.3023,5.3031,5.3171,5.3163,5.315,5.3148,5.3231,5.3223,5.3498,5.3534,5.3307,5.3309,5.3311,0,5.2293,5.2375,5.2445,5.2497,5.2534,5.2619,5.2672,5.2683,5.2739,5.2817,5.2879,5.297,5.3042,5.3191,5.3226,5.331,5.3303,5.3394,5.3315,5.3311,5.3303,5.3297,5.3305,5.3408,5.341,5.3412,5.3414,0,5.2501,5.2508,5.2585,5.2666,5.273,5.2794,5.2856,5.29,5.2919,5.2983,5.3077,5.3133,5.3245,5.3334,5.3419,5.3454,5.3438,5.3439,5.3462,5.3461,5.345,5.3456,5.3189,5.3432,5.343,5.3429,5.3428,5.3427,5.2647,5.2718,5.2778,5.2864,5.2912,5.2969,5.3039,5.307,5.3148,5.3239,5.3241,5.3343,5.3404,5.3515,5.3556,5.3636,5.3608,5.3642,5.3651,5.3659,5.3666,5.3438,5.3651,5.3651,5.365,5.365,5.365,0,5.2853,5.289,5.2969,5.3055,5.3123,5.3101,5.3168,5.3226,5.3316,5.3374,5.3445,5.3553,5.3639,5.3682,5.3768,5.3823,5.3818,5.3845,5.3841,5.3849,5.3687,5.3657,5.3848,5.3848,5.3848,5.3848,5.3848,5.3848,5.2968,5.3086,5.31,5.3241,5.3278,5.3377,5.3417,5.347,5.3516,5.3636,5.3708,5.3734,5.3786,5.3876,5.3954,5.3964,5.3996,5.4027,5.4034,5.3881,5.3861,5.3841,5.3813,5.4035,5.4035,5.4189,5.4191,5.4192]},{"header":{"parameterUnit":"m.s-1","parameterCategory":1,"la1":30.2991,"la2":30.254,"lo1":-89.0895,"lo2":-89.0444,"dy":0.0017,"dx":0.0017,"nx":28,"ny":28,"refTime":"2023-08-06T21:00:00:Z","depth":0,"parameterNumber":3,"parameterNumberName":"V-component_of_WINDS"},"data":[0,0,0,0,0,0,0,0,0,0,0,0,0,0,0,0,0,0,0,0,0,0,0,0,0,0,0,0,0,0,0,0,0,0,0,0,0,0,0,0,0,0,0,0,0,0,0,0,0,0,0,0,0,0,0,0,0,0,0.3704,0.3704,0,0.3663,0.3662,0.3662,0.3622,0.3622,0.3621,0.3621,0.3578,0.3577,0.3577,0,0,0,0,0,0,0,0,0,0,0,0,0,0.3747,0.3746,0.3704,0.3704,0.3703,0.3663,0.3662,0.3662,0.3622,0.3622,0.3621,0.3621,0.3578,0.3577,0.3576,0,0,0,0,0,0,0,0,0,0,0,0,0,0.3719,0.3746,0.3704,0.3679,0.3676,0.3663,0.3662,0.3662,0.3623,0.3622,0.3621,0.362,0.3578,0.3577,0.3576,0.3585,0,0,0.3573,0.3573,0,0,0,0,0,0,0,0,0.3721,0.3718,0.3683,0.368,0.3677,0.3647,0.3662,0.3636,0.3623,0.3643,0.3621,0.362,0.3601,0.3598,0.3592,0.3583,0.3581,0.3573,0.3573,0.3572,0.3572,0,0,0,0,0,0,0,0.3723,0.3719,0.3688,0.3682,0.3679,0.3669,0.3664,0.3657,0.3627,0.3641,0.3638,0.3634,0.36,0.3593,0.3591,0.3581,0.3573,0.3572,0.3572,0.3571,0.3576,0.3577,0,0,0,0,0,0,0.3729,0.3721,0.3689,0.3687,0.3698,0.3668,0.3663,0.3657,0.3627,0.3621,0.3634,0.3632,0.3596,0.3592,0.3589,0.3598,0.3572,0.3571,0.3571,0.3576,0.3577,0.3577,0,0,0,0,0,0,0.373,0.3726,0.3691,0.3703,0.3698,0.3669,0.3662,0.3657,0.3651,0.3622,0.3616,0.3634,0.3595,0.3591,0.3587,0.3596,0.3571,0.357,0.3575,0.3576,0.3577,0.3615,0,0,0,0,0,0,0.3731,0.3727,0.3731,0.3703,0.3697,0.3689,0.3663,0.3657,0.3649,0.3646,0.362,0.3615,0.3594,0.3588,0.3586,0.3594,0.3569,0.3574,0.3575,0.3577,0.3613,0.3617,0.3621,0,0,0,0,0,0.3733,0.3743,0.3731,0.3727,0.3701,0.369,0.3686,0.3663,0.365,0.3653,0.3635,0.3615,0.3595,0.3588,0.3585,0.3593,0.3573,0.3575,0.3577,0.3611,0.3616,0.3621,0,0,0,0,0,0,0.3772,0.3739,0.3725,0.3727,0.3711,0.3683,0.3686,0.3669,0.3657,0.3654,0.3625,0.3619,0.3618,0.3605,0.3598,0.36,0.3581,0.3583,0.3609,0.3614,0.3618,0.3621,0.3568,0,0,0,0,0,0.378,0.3774,0.3746,0.375,0.3743,0.3716,0.371,0.3693,0.3676,0.3669,0.365,0.3634,0.3624,0.3618,0.3607,0.361,0.3604,0.3614,0.3618,0.3622,0.3623,0.3624,0.3628,0.3583,0.3583,0.3583,0,0,0.3798,0.3779,0.3777,0.3757,0.3743,0.3737,0.3711,0.3706,0.3701,0.3668,0.3663,0.3649,0.3629,0.3628,0.3627,0.3617,0.3634,0.3624,0.3627,0.3627,0.3626,0.363,0.3634,0.3584,0.3584,0.3584,0,0,0.3828,0.3813,0.3815,0.3801,0.3781,0.3763,0.3763,0.3737,0.3727,0.3721,0.3697,0.369,0.3673,0.366,0.3651,0.3675,0.3657,0.3672,0.3694,0.3695,0.3698,0.3701,0.371,0.3713,0.3673,0.3673,0.3673,0,0.3853,0.3843,0.3818,0.3814,0.3806,0.3776,0.3777,0.3765,0.3742,0.3737,0.3726,0.3704,0.3688,0.3684,0.369,0.3684,0.3683,0.3675,0.37,0.3703,0.3705,0.3713,0.3716,0.3675,0.3675,0.3675,0.3675,0,0.3875,0.3868,0.3872,0.3851,0.3842,0.3841,0.3815,0.381,0.3793,0.3776,0.3771,0.3751,0.3735,0.3733,0.3717,0.3726,0.3721,0.3705,0.3686,0.3712,0.3719,0.3721,0.3678,0.3678,0.3677,0.3676,0,0,0.3928,0.3892,0.3894,0.3884,0.3859,0.3853,0.385,0.3835,0.3831,0.3816,0.3813,0.3799,0.3784,0.3774,0.3756,0.3757,0.3777,0.3741,0.374,0.3748,0.3786,0.3799,0.3802,0.3764,0.3765,0.3765,0.3788,0,0.3954,0.3948,0.3924,0.3925,0.3918,0.389,0.3887,0.3871,0.3855,0.3847,0.3829,0.382,0.3801,0.3794,0.3794,0.3775,0.3784,0.3772,0.3761,0.3761,0.3767,0.3806,0.3819,0.3842,0.379,0.3791,0.3791,0,0.3983,0.397,0.397,0.3945,0.3941,0.394,0.3924,0.3916,0.3897,0.3885,0.3874,0.3854,0.3848,0.383,0.3823,0.3815,0.3809,0.3799,0.3799,0.3797,0.3778,0.3806,0.3848,0.3852,0.3795,0.3795,0.3795,0,0.4023,0.4005,0.4003,0.3995,0.3965,0.3964,0.3952,0.3932,0.3925,0.391,0.3905,0.389,0.3883,0.3871,0.3847,0.3836,0.3842,0.3822,0.3832,0.3833,0.3835,0.3835,0.3878,0.383,0.383,0.383,0.383,0,0.4054,0.4055,0.402,0.4019,0.4019,0.3992,0.3992,0.3977,0.396,0.3954,0.3928,0.3924,0.3892,0.3884,0.3865,0.3861,0.3858,0.3848,0.3843,0.3851,0.3852,0.3846,0.3844,0.3831,0.3831,0.3831,0.3831,0,0.4098,0.4075,0.407,0.4043,0.4036,0.4037,0.4013,0.401,0.3992,0.3986,0.3983,0.3955,0.3944,0.3918,0.39,0.3887,0.3889,0.3879,0.3895,0.3892,0.3904,0.3903,0.3944,0.3948,0.3898,0.3899,0.3899,0,0.412,0.412,0.4093,0.4088,0.4076,0.4068,0.406,0.4033,0.4026,0.4004,0.4004,0.3991,0.3979,0.3962,0.394,0.3926,0.3916,0.3931,0.3914,0.3921,0.3916,0.3917,0.3917,0.3935,0.3936,0.3937,0.3937,0,0.4161,0.415,0.414,0.4125,0.4117,0.4104,0.409,0.4087,0.4056,0.4049,0.4038,0.4029,0.401,0.3997,0.398,0.3966,0.3947,0.3943,0.3944,0.3952,0.3962,0.3957,0.3907,0.3942,0.3942,0.3941,0.3941,0.3941,0.4195,0.4194,0.4174,0.4164,0.415,0.4138,0.4134,0.4115,0.4106,0.4089,0.4073,0.4063,0.4043,0.4018,0.4005,0.3997,0.3987,0.3989,0.399,0.3991,0.3994,0.3963,0.3993,0.3993,0.3993,0.3993,0.3993,0,0.4235,0.4221,0.4212,0.4193,0.4185,0.4167,0.415,0.4144,0.4136,0.4119,0.4108,0.4095,0.4082,0.4058,0.4044,0.4041,0.4032,0.4038,0.4038,0.4035,0.4004,0.4004,0.4046,0.4046,0.4046,0.4046,0.4046,0.4046,0.4255,0.4252,0.4238,0.4228,0.4214,0.4204,0.4196,0.4184,0.4171,0.4157,0.4147,0.4132,0.4112,0.4095,0.4083,0.4076,0.4072,0.4081,0.4072,0.4043,0.4038,0.4033,0.4033,0.408,0.408,0.4104,0.4104,0.4104]}]]